Weather History for Kalamazoo, MI

Change the Weather History Date:

Thursday, February 28, 2013

  Actual Average Record
Temperature  
Mean Temperature 34 °F 30 °F  
Max Temperature 36 °F 38 °F 65 °F (1976)
Min Temperature 31 °F 23 °F -13 °F (2014)
Degree Days  
Heating Degree Days 31 35  
Month to date heating degree days 1099 1066  
Since 1 July heating degree days 4550 4773  
Cooling Degree Days 0 0  
Month to date cooling degree days 0 0  
Year to date cooling degree days 0 0  
Moisture  
Dew Point 30 °F    
Average Humidity 86    
Maximum Humidity 96    
Minimum Humidity 75    
Precipitation  
Precipitation T in 0.06 in 0.72 in (1950)
Month to date precipitation 1.26 1.45  
Year to date precipitation 4.66 3.24  
Sea Level Pressure  
Sea Level Pressure 29.78 in    
Wind  
Wind Speed 12 mph (NNW)    
Max Wind Speed 16 mph    
Max Gust Speed 20 mph    
Visibility 8 miles    
Events Snow    
T = Trace of Precipitation, MM = Missing Value Source: NWS Daily Summary

Daily Weather History Graph

Daily Weather History Graph

Search for Another Location

Airport:

Trip Planner

Search our weather history database for the weather conditions in past years. The results will help you decide how hot, cold, wet, or windy it might be!

Date:

Astronomy

Feb. 28, 2013 Rise Set
Actual Time 7:18 AM EST 6:31 PM EST
Civil Twilight 6:50 AM EST 6:59 PM EST
Nautical Twilight 6:18 AM EST 7:31 PM EST
Astronomical Twilight 5:45 AM EST 8:04 PM EST
Moon 10:02 PM EST (2/28) 8:23 AM EST (2/28)
Length of Visible Light 12h 08m
Length of Day
11h 12m
Waning Gibbous, 91% of the Moon is Illuminated
Feb 28
Waning Gibbous
Mar 4
Last Quarter
Mar 11
New
Mar 19
First Quarter
Mar 27
Full

Hourly Weather History & Observations

Time (EST) Temp. Windchill Dew Point Humidity Pressure Visibility Wind Dir Wind Speed Gust Speed Precip Events Conditions
12:15 AM 33.8 °F 26.4 °F 32.0 °F 93% 29.58 in 3.0 mi NNW 9.2 mph - N/A   Overcast
12:53 AM 34.0 °F 26.0 °F 32.0 °F 92% 29.61 in 4.0 mi North 10.4 mph - N/A   Overcast
1:02 AM 33.8 °F 25.8 °F 32.0 °F 93% 29.59 in 4.0 mi NNW 10.4 mph - N/A   Overcast
1:33 AM 33.8 °F 25.3 °F 32.0 °F 93% 29.59 in 2.5 mi North 11.5 mph - N/A   Overcast
1:46 AM 33.8 °F 25.3 °F 32.0 °F 93% 29.59 in 3.0 mi North 11.5 mph - N/A   Overcast
1:53 AM 34.0 °F 25.5 °F 32.0 °F 92% 29.62 in 5.0 mi North 11.5 mph - N/A   Overcast
2:53 AM 34.0 °F 26.6 °F 32.0 °F 92% 29.64 in 6.0 mi NNW 9.2 mph - N/A   Overcast
3:53 AM 34.0 °F 25.5 °F 32.0 °F 92% 29.65 in 8.0 mi NNW 11.5 mph - N/A   Overcast
4:42 AM 33.8 °F 25.3 °F 30.2 °F 87% 29.64 in 9.0 mi North 11.5 mph - N/A   Overcast
4:53 AM 34.0 °F 25.5 °F 30.9 °F 89% 29.67 in 8.0 mi NNW 11.5 mph - N/A   Overcast
5:53 AM 33.1 °F 23.9 °F 30.9 °F 92% 29.69 in 4.0 mi NNW 12.7 mph - 0.00 in Snow Light Snow
6:04 AM 33.8 °F 25.3 °F 30.2 °F 87% 29.67 in 2.0 mi NNW 11.5 mph - 0.00 in Snow Light Snow
6:53 AM 33.1 °F 23.4 °F 30.9 °F 92% 29.72 in 4.0 mi NNW 13.8 mph - 0.00 in Snow Light Snow
7:53 AM 33.1 °F 23.4 °F 30.0 °F 89% 29.74 in 10.0 mi North 13.8 mph - 0.00 in   Overcast
8:53 AM 33.8 °F 25.3 °F 30.2 °F 87% 29.74 in 10.0 mi North 11.5 mph - N/A   Overcast
9:53 AM 34.0 °F 26.0 °F 30.0 °F 85% 29.79 in 10.0 mi NNW 10.4 mph - N/A   Overcast
10:53 AM 35.1 °F 26.9 °F 30.0 °F 82% 29.81 in 10.0 mi North 11.5 mph - N/A   Overcast
11:53 AM 35.1 °F 26.4 °F 30.0 °F 82% 29.82 in 10.0 mi North 12.7 mph - N/A   Overcast
12:53 PM 36.0 °F 27.1 °F 28.9 °F 76% 29.84 in 10.0 mi NNW 13.8 mph - N/A   Overcast
1:53 PM 36.0 °F 27.5 °F 28.9 °F 76% 29.83 in 10.0 mi North 12.7 mph - N/A   Overcast
2:53 PM 36.0 °F 27.5 °F 28.9 °F 76% 29.85 in 10.0 mi NW 12.7 mph - N/A   Overcast
3:53 PM 36.0 °F 27.5 °F 28.9 °F 76% 29.87 in 10.0 mi NNW 12.7 mph - N/A   Overcast
4:53 PM 35.1 °F 25.5 °F 28.0 °F 76% 29.89 in 10.0 mi NNW 15.0 mph - N/A   Overcast
5:53 PM 35.1 °F 27.4 °F 28.0 °F 76% 29.92 in 10.0 mi NNW 10.4 mph - N/A   Overcast
6:53 PM 35.1 °F 27.9 °F 28.0 °F 76% 29.94 in 10.0 mi NNW 9.2 mph - N/A   Overcast
7:53 PM 34.0 °F 25.5 °F 27.0 °F 75% 29.97 in 10.0 mi NNW 11.5 mph - N/A   Overcast
8:53 PM 33.1 °F 26.1 °F 28.0 °F 82% 29.99 in 10.0 mi NW 8.1 mph - N/A   Overcast
9:53 PM 33.1 °F 24.9 °F 27.0 °F 78% 29.99 in 10.0 mi North 10.4 mph - N/A   Overcast
10:53 PM 32.0 °F 22.5 °F 27.0 °F 82% 30.00 in 7.0 mi North 12.7 mph - N/A   Overcast
11:53 PM 30.9 °F 23.5 °F 28.0 °F 89% 30.00 in 6.0 mi North 8.1 mph - N/A   Overcast